This is the latest recevied weather packets stored in our database for station/object EB1HRW. If no packets are shown the sender has not sent any weather packets the latest 10 day(s).
| Time | Temp. | Humidity | Pressure | Rain* | Wind** | Luminosity | Snow |
|---|---|---|---|---|---|---|---|
| 1778126938 | 8.89° C | 84% | 1010.1 hPa | 0 mm | - | - | - |
| 1778126038 | 9.44° C | 83% | 1010.2 hPa | 0 mm | - | - | - |
| 1778125139 | 9.44° C | 82% | 1010 hPa | 0 mm | - | - | - |
| 1778124237 | 10° C | 82% | 1009.9 hPa | 0 mm | - | - | - |
| 1778123338 | 10° C | 81% | 1010 hPa | 0 mm | - | - | - |
| 1778122437 | 10° C | 81% | 1009.9 hPa | 0 mm | - | - | - |
| 1778121537 | 10.56° C | 81% | 1009.9 hPa | 0 mm | - | - | - |
| 1778120638 | 10.56° C | 80% | 1010 hPa | 0 mm | - | - | - |
| 1778119737 | 10.56° C | 79% | 1010.1 hPa | 0 mm | - | - | - |
| 1778118838 | 11.11° C | 78% | 1010.1 hPa | 0 mm | - | - | - |
| 1778117938 | 10.56° C | 81% | 1010.2 hPa | 0 mm | - | - | - |
| 1778117037 | 10.56° C | 82% | 1010.4 hPa | 0 mm | - | - | - |
| 1778116138 | 10° C | 82% | 1010.4 hPa | 0 mm | - | - | - |
| 1778115238 | 10° C | 82% | 1010.6 hPa | 0 mm | - | - | - |
| 1778114337 | 10° C | 82% | 1010.7 hPa | 0 mm | - | - | - |
| 1778113438 | 10.56° C | 81% | 1010.9 hPa | 0 mm | - | - | - |
| 1778112539 | 10.56° C | 81% | 1011 hPa | 0 mm | - | - | - |
| 1778111637 | 10.56° C | 80% | 1011 hPa | 0 mm | - | - | - |
| 1778110738 | 10.56° C | 78% | 1011.1 hPa | 0 mm | - | - | - |
| 1778109837 | 10.56° C | 77% | 1011 hPa | 0 mm | - | - | - |
| 1778108937 | 10.56° C | 76% | 1011.1 hPa | 0 mm | - | - | - |
| 1778108038 | 11.11° C | 73% | 1011 hPa | 0 mm | - | - | - |
| 1778107137 | 11.11° C | 72% | 1011.2 hPa | 0 mm | - | - | - |
| 1778106237 | 11.11° C | 73% | 1011.2 hPa | 0 mm | - | - | - |
| 1778105339 | 11.67° C | 72% | 1011.1 hPa | 0 mm | - | - | - |
* Rain latest hour (hover to see other rain measurements)
** Current wind speed in m/s (hover to see current wind gust speed)